This demonstration page uses our WeatherBlox Daily Observations layout. Learn more.

Left ArrowRight Arrow

34.74481, -87.66753

Hourly Observations for December 25, 2019

Temp ( °F °C ) Dew Point ( °F °C ) Humidity (%) Winds ( mph kmh ) Pressure ( in mb ) Visibility ( mi km ) Precip ( " mm )
12:53 am 00:53 Clear 46 7.8 44 6.7 93 93 Calm 30.02 1017 10 16 0.00 0.00
1:25 am 01:25 Clear with Mist and Fog 45 7.2 43 6.1 93 93 Calm 30.04 1017 2 3 0.00 0.00
1:37 am 01:37 Clear with Mist and Fog 44 6.7 42 5.6 93 93 Calm 30.05 1018 1 1 0.00 0.00
1:49 am 01:49 Mostly Clear with Mist and Fog 45 7 43 6 93 93 Calm 30.05 1018 1 2 0.00 0.00
1:53 am 01:53 Mostly Cloudy with Mist and Fog 44 6.7 42 5.6 93 93 Calm 30.03 1017 1 2 0.00 0.00
2:00 am 02:00 Mostly Cloudy with Mist and Fog 44 6.7 42 5.6 93 93 Calm 30.05 1018 1 1 0.00 0.00
2:04 am 02:04 Mostly Clear with Mist and Fog 44 6.7 42 5.6 93 93 Calm 30.05 1018 1 2 0.00 0.00
2:10 am 02:10 Mostly Clear with Mist and Fog 45 7.2 42 5.6 90 90 Calm 30.05 1018 3 5 0.00 0.00
2:20 am 02:20 Mostly Clear with Mist and Fog 45 7.2 43 6.1 93 93 E 3 6 30.05 1018 2 3 0.00 0.00
2:33 am 02:33 Clear with Mist and Fog 44 6.7 42 5.6 93 93 ESE 3 6 30.05 1018 3 5 0.00 0.00
2:53 am 02:53 Partly Cloudy 44 6.7 42 5.6 93 93 Calm 30.04 1017 9 14 0.00 0.00
3:14 am 03:14 Mostly Clear with Mist and Fog 45 7.2 43 6.1 93 93 E 5 7 30.05 1018 2 3 0.00 0.00
3:25 am 03:25 Clear with Mist and Fog 45 7.2 43 6.1 93 93 Calm 30.06 1018 3 5 0.00 0.00
3:53 am 03:53 Clear 45 7.2 43 6.1 93 93 Calm 30.04 1017 8 13 0.00 0.00
4:53 am 04:53 Clear 45 7.2 43 6.1 93 93 ESE 3 6 30.05 1018 7 11 0.00 0.00
5:11 am 05:11 Clear with Mist and Fog 44 6.7 42 5.6 93 93 ESE 3 6 30.07 1018 2 3 0.00 0.00
5:21 am 05:21 Clear with Mist and Fog 44 6.7 42 5.6 93 93 Calm 30.08 1019 3 5 0.00 0.00
5:37 am 05:37 Clear with Mist and Fog 45 7.2 43 6.1 93 93 Calm 30.08 1019 2 3 0.00 0.00
5:48 am 05:48 Clear with Fog 45 7 43 6 93 93 Calm 30.08 1019 1 1 0.00 0.00
5:53 am 05:53 Clear with Mist and Fog 44 6.7 43 6.1 96 96 Calm 30.07 1018 1 1 0.00 0.00
6:00 am 06:00 Clear with Mist and Fog 44 6.7 42 5.6 93 93 Calm 30.09 1019 2 3 0.00 0.00
6:16 am 06:16 Clear 44 6.7 42 5.6 93 93 Calm 30.09 1019 8 13 0.00 0.00
6:24 am 06:24 Clear with Mist and Fog 44 6.7 42 5.6 93 93 E 3 6 30.10 1019 2 3 0.00 0.00
6:53 am 06:53 Clear with Mist and Fog 44 6.7 43 6.1 96 96 ESE 6 9 30.09 1019 3 4 0.00 0.00
7:53 am 07:53 Sunny 50 10 48 8.9 93 93 ESE 8 13 30.09 1019 9 14 0.00 0.00
8:53 am 08:53 Sunny 55 12.8 51 10.6 87 87 SE 6 9 30.10 1019 10 16 0.00 0.00
9:53 am 09:53 Sunny 61 16.1 53 11.7 75 75 SE 8 13 30.11 1020 10 16 0.00 0.00
10:53 am 10:53 Sunny 66 18.9 54 12.2 65 65 S 7 11 30.09 1019 10 16 0.00 0.00
11:53 am 11:53 Sunny 68 20 53 11.7 59 59 S 12 19 30.05 1018 10 16 0.00 0.00
12:53 pm 12:53 Sunny 69 20.6 53 11.7 57 57 S 9 15 30.04 1017 10 16 0.00 0.00
1:53 pm 13:53 Sunny 70 21.1 53 11.7 55 55 S 7 11 30.03 1017 10 16 0.00 0.00
2:53 pm 14:53 Sunny 69 20.6 53 11.7 57 57 SSE 7 11 30.04 1017 10 16 0.00 0.00
3:53 pm 15:53 Sunny 67 19.4 54 12.2 63 63 SSE 7 11 30.05 1018 10 16 0.00 0.00
4:53 pm 16:53 Clear 63 17.2 53 11.7 70 70 SE 8 13 30.04 1017 10 16 0.00 0.00
5:53 pm 17:53 Clear 62 16.7 53 11.7 73 73 SSE 3 6 30.06 1018 10 16 0.00 0.00
6:53 pm 18:53 Clear 58 14.4 52 11.1 81 81 SE 6 9 30.07 1018 10 16 0.00 0.00
7:53 pm 19:53 Clear 58 14.4 52 11.1 81 81 SSE 5 7 30.07 1018 10 16 0.00 0.00
8:53 pm 20:53 Clear 57 13.9 51 10.6 81 81 ESE 5 7 30.07 1018 10 16 0.00 0.00
9:53 pm 21:53 Clear 53 11.7 49 9.4 86 86 ESE 6 9 30.08 1019 10 16 0.00 0.00
10:53 pm 22:53 Clear 55 12.8 50 10 83 83 ESE 5 7 30.08 1019 10 16 0.00 0.00
11:53 pm 23:53 Clear 53 11.7 49 9.4 86 86 ESE 3 6 30.08 1019 10 16 0.00 0.00

Powered by AerisWeather